Regional Weather Roundup
Issued by NWS

Home | Current Version | Previous Version | Graphics & Text | Print | Product List | Glossary On
Versions: 1 2 3 4 5 6 7 8 9 10 11 12 13 14 15 16 17 18 19 20 21 22 23 24 25 26 27 28 29 30 31 32 33 34 35 36 37 38 39 40 41 42 43 44 45 46 47 48 49 50
000
ASUS45 KPSR 031600
RWRAZ

ARIZONA HOURLY REGIONAL WEATHER ROUNDUP
NATIONAL WEATHER SERVICE PHOENIX AZ
900 AM MST WED JUN 03 2015

NOTE: FAIR INDICATES FEW OR NO CLOUDS BELOW 12,000 FEET WITH NO
SIGNIFICANT WEATHER AND/OR OBSTRUCTIONS TO VISIBILITY.

AZZ001>003-036-031700-
NORTHWEST ARIZONA

CITY           SKY/WX    TMP DP  RH WIND       PRES   REMARKS
KINGMAN        SUNNY     78  18  10 SW8       29.89S
$$

AZZ004>008-015-016-018-031700-
NORTH CENTRAL ARIZONA

CITY           SKY/WX    TMP DP  RH WIND       PRES   REMARKS
GRAND CANYON   SUNNY     66  24  20 SW17G24   30.10S
WILLIAMS       SUNNY     66  19  16 S15G22    30.16S
PRESCOTT       SUNNY     73  23  15 S12       30.02S
FLAGSTAFF      NOT AVBL
PAYSON         SUNNY     73  18  12 VRB7G16   30.08S
PAGE           SUNNY     76  24  14 VRB7      29.95F
$$

AZZ009>014-017-031700-
NORTHEAST ARIZONA

CITY           SKY/WX    TMP DP  RH WIND       PRES   REMARKS
WINSLOW        NOT AVBL
SAINT JOHNS    SUNNY     74  21  13 SW9       30.08F
WINDOW ROCK    SUNNY     72  20  14 SW15G26   30.14F
$$

AZZ023-031700-
GREATER PHOENIX AREA

CITY           SKY/WX    TMP DP  RH WIND       PRES   REMARKS
PHOENIX        SUNNY     86  30  13 E5        29.83R
GLENDALE       SUNNY     84  32  15 CALM      29.84S
DEER VALLEY    SUNNY     84  22  10 S5        29.85R
SCOTTSDALE     SUNNY     84  26  12 VRB5      29.87R
MESA-FALCON    SUNNY     86  27  11 E8        29.85S
MESA-GATEWAY   SUNNY     82  34  17 SE6       29.87R
CHANDLER       SUNNY     86  30  13 VRB6      29.85S
$$

AZZ027-028-031700-
SOUTHWEST MARICOPA COUNTY AND PINAL COUNTY

CITY           SKY/WX    TMP DP  RH WIND       PRES   REMARKS
CASA GRANDE    SUNNY     84  34  16 CALM      29.85S
$$

AZZ503-504-507>509-031700-
SOUTHEAST ARIZONA

CITY           SKY/WX    TMP DP  RH WIND       PRES   REMARKS
TUCSON         SUNNY     87  29  12 S9        29.95F
RYAN FIELD     SUNNY     88  34  14 E9        29.93F
NOGALES        SUNNY     84  30  14 S10       30.02F
SAFFORD        SUNNY     82  26  13 VRB3      29.95S
$$

AZZ020-021-025-026-031-031700-
SOUTHWEST ARIZONA

CITY           SKY/WX    TMP DP  RH WIND       PRES   REMARKS
YUMA           NOT AVBL
$$

CAZ031-033-041-043-047-048-061-031700-
SOUTHERN CALIFORNIA

CITY           SKY/WX    TMP DP  RH WIND       PRES   REMARKS
DOWNTOWN L.A.  CLOUDY    65  56  72 E7        29.95R
L.A. AIRPORT   CLOUDY    62  58  86 SE8       29.96R
SAN DIEGO      CLOUDY    63  53  70 S8        29.98F
BURBANK        CLOUDY    63  55  75 SE7       29.95R
ONTARIO        CLOUDY    62  54  74 CALM      29.96R
RIVERSIDE      CLOUDY    63  53  70 SE9       29.96S
PALM SPRINGS   SUNNY     80  44  27 N10       29.82R
EL CENTRO NAS  MOSUNNY   86  26  11 W24       29.80S
IMPERIAL       SUNNY     84  31  14 NW14G20   29.78R
BLYTHE         SUNNY     81  41  24 NE6       29.79R
$$

NVZ020-UTZ003-031700-
SOUTHERN NEVADA-UTAH

CITY           SKY/WX    TMP DP  RH WIND       PRES   REMARKS
LAS VEGAS      NOT AVBL
SALT LAKE CITY PTSUNNY   69  48  47 S3        29.91S
$$

NMZ009-TXZ055-031700-
NEW MEXICO-WEST TEXAS

CITY           SKY/WX    TMP DP  RH WIND       PRES   REMARKS
ALBUQUERQUE    MOSUNNY   76  26  15 CALM      30.09F
EL PASO        SUNNY     86  26  11 SW16      30.00S
$$


........................KEY........................
SKY/WX - SKY CONDITION/WEATHER
TMP    - TEMPERATURE IN FAHRENHEIT
DP     - DEW POINT IN FAHRENHEIT
RH     - RELATIVE HUMIDITY IN PERCENT
WIND   - DIRECTION AND SPEED IN MILES PER HOUR (MPH)
VRB    - VARIABLE WIND DIRECTION
PRES   - MEAN SEA LEVEL PRESSURE IN INCHES OF MERCURY
         F - FALLING PRESSURE   R - RISING PRESSURE
         S - STEADY PRESSURE
VSB    - VISIBILITY IN MILES
HX     - HEAT INDEX IN FAHRENHEIT
WCI    - WIND CHILL INDEX IN FAHRENHEIT
TC     - TEMPERATURE IN CELSIUS WHICH IS ALSO KNOWN AS
         TEMPERATURE IN CENTIGRADE
AFB    - AIR FORCE BASE
         LUKE AFB IS LUKE AIR FORCE BASE
         DAVIS-MONTHAN IS DAVIS-MONTHAN AIR FORCE BASE
NAS    - NAVAL AIR STATION
         EL CENTRO NAS IS EL CENTRO NAVAL AIR STATION
N/A    - NOT AVAILABLE



USA.gov is the U.S. government's official web portal to all federal, state and local government web resources and services.